Data No, UTC Date,UTC Time,Latitude,Longitude,Course(deg),Temp(degC),Sal(psu),pH
565,2019/4/15,9:24,42-36.88N,141-37.04E,209,5.739,31.6242,8.2
566,2019/4/15,9:25,42-36.62N,141-36.85E,209,5.517,31.5662,8.19
567,2019/4/15,9:26,42-36.35N,141-36.70E,194,5.305,31.5179,8.2
568,2019/4/15,9:27,42-36.07N,141-36.72E,174,5.519,31.6022,8.19
569,2019/4/15,9:28,42-35.76N,141-36.75E,175,5.41,31.4617,8.2
570,2019/4/15,9:29,42-35.46N,141-36.78E,175,5.192,31.616,8.2
571,2019/4/15,9:30,42-35.15N,141-36.83E,171,5.123,31.7349,8.21
572,2019/4/15,9:31,42-34.86N,141-36.95E,161,4.773,31.8138,8.21
573,2019/4/15,9:32,42-34.58N,141-37.09E,159,4.462,31.9358,8.21
574,2019/4/15,9:33,42-34.29N,141-37.26E,157,3.829,32.0419,8.21
575,2019/4/15,9:34,42-34.00N,141-37.42E,157,3.658,32.1406,8.21
576,2019/4/15,9:35,42-33.70N,141-37.59E,157,3.578,32.1967,8.21
577,2019/4/15,9:36,42-33.40N,141-37.75E,159,3.513,32.2097,8.22
578,2019/4/15,9:37,42-33.10N,141-37.92E,156,3.624,32.2244,8.21
579,2019/4/15,9:38,42-32.80N,141-38.11E,154,3.602,32.2255,8.21
580,2019/4/15,9:39,42-32.48N,141-38.31E,154,3.64,32.2259,8.22
581,2019/4/15,9:40,42-32.18N,141-38.51E,154,3.634,32.2198,8.23
582,2019/4/15,9:41,42-31.87N,141-38.71E,154,3.649,32.2225,8.22
583,2019/4/15,9:42,42-31.56N,141-38.92E,154,3.594,32.2196,8.22
584,2019/4/15,9:43,42-31.25N,141-39.12E,154,3.565,32.2152,8.22
585,2019/4/15,9:44,42-30.93N,141-39.33E,154,3.531,32.2133,8.23
586,2019/4/15,9:45,42-30.61N,141-39.53E,154,3.46,32.2107,8.22
587,2019/4/15,9:46,42-30.30N,141-39.74E,153,3.42,32.2085,8.22
588,2019/4/15,9:47,42-29.99N,141-39.95E,153,3.345,32.2093,8.23
589,2019/4/15,9:48,42-29.76N,141-40.27E,122,3.395,32.2127,8.22
590,2019/4/15,9:49,42-29.60N,141-40.68E,117,3.195,32.2224,8.23
591,2019/4/15,9:50,42-29.44N,141-41.08E,117,3.152,32.2137,8.23
592,2019/4/15,9:51,42-29.27N,141-41.51E,118,3.172,32.2167,8.22
593,2019/4/15,9:52,42-29.10N,141-41.94E,118,3.207,32.2221,8.23
594,2019/4/15,9:53,42-28.91N,141-42.38E,120,3.137,32.2233,8.22
595,2019/4/15,9:54,42-28.73N,141-42.80E,121,3.024,32.223,8.22
596,2019/4/15,9:55,42-28.54N,141-43.22E,121,2.946,32.2166,8.22
597,2019/4/15,9:56,42-28.35N,141-43.64E,121,2.942,32.2193,8.23
598,2019/4/15,9:57,42-28.15N,141-44.06E,121,2.914,32.2164,8.23
599,2019/4/15,9:58,42-27.97N,141-44.47E,121,2.86,32.21,8.22
600,2019/4/15,9:59,42-27.78N,141-44.89E,121,2.778,32.2085,8.22
601,2019/4/15,10:00,42-27.58N,141-45.31E,122,2.757,32.2019,8.23
602,2019/4/15,10:01,42-27.39N,141-45.74E,122,2.74,32.2036,8.23
603,2019/4/15,10:02,42-27.19N,141-46.16E,122,2.7,32.2039,8.23
604,2019/4/15,10:03,42-27.00N,141-46.58E,122,2.695,32.1995,8.23
605,2019/4/15,10:04,42-26.81N,141-46.97E,122,2.684,32.1958,8.23
606,2019/4/15,10:05,42-26.62N,141-47.39E,122,2.636,32.1952,8.24
607,2019/4/15,10:06,42-26.42N,141-47.81E,122,2.642,32.1948,8.24
608,2019/4/15,10:07,42-26.24N,141-48.21E,122,2.625,32.1951,8.23
609,2019/4/15,10:08,42-26.05N,141-48.61E,122,2.584,32.1902,8.23
610,2019/4/15,10:09,42-25.86N,141-49.01E,122,2.549,32.1901,8.23
611,2019/4/15,10:10,42-25.69N,141-49.40E,120,2.41,32.1913,8.23
612,2019/4/15,10:11,42-25.51N,141-49.81E,119,2.3,32.1877,8.23
613,2019/4/15,10:12,42-25.34N,141-50.23E,119,2.298,32.1864,8.23
614,2019/4/15,10:13,42-25.17N,141-50.65E,119,2.315,32.1886,8.23
615,2019/4/15,10:14,42-25.00N,141-51.06E,119,2.302,32.1847,8.24
616,2019/4/15,10:15,42-24.82N,141-51.47E,120,2.268,32.1848,8.24
617,2019/4/15,10:16,42-24.64N,141-51.90E,119,2.272,32.1857,8.24
618,2019/4/15,10:17,42-24.47N,141-52.32E,118,2.269,32.1888,8.24
619,2019/4/15,10:18,42-24.31N,141-52.72E,118,2.35,32.1943,8.24
620,2019/4/15,10:19,42-24.15N,141-53.12E,119,2.322,32.2014,8.23
621,2019/4/15,10:20,42-23.98N,141-53.52E,119,2.205,32.2042,8.24
622,2019/4/15,10:21,42-23.81N,141-53.93E,119,2.085,32.2033,8.23
623,2019/4/15,10:22,42-23.64N,141-54.34E,119,2.035,32.2026,8.24
624,2019/4/15,10:23,42-23.47N,141-54.75E,118,2.007,32.2039,8.23
625,2019/4/15,10:24,42-23.30N,141-55.15E,120,1.897,32.2023,8.24
626,2019/4/15,10:25,42-23.15N,141-55.54E,118,1.879,32.1886,8.24
627,2019/4/15,10:26,42-22.98N,141-55.94E,118,1.94,32.1824,8.24
628,2019/4/15,10:27,42-22.82N,141-56.34E,119,2.02,32.1725,8.25
629,2019/4/15,10:28,42-22.65N,141-56.73E,120,2.11,32.1653,8.24
630,2019/4/15,10:29,42-22.47N,141-57.12E,121,2.183,32.1601,8.24
631,2019/4/15,10:30,42-22.29N,141-57.49E,122,2.315,32.1539,8.24
632,2019/4/15,10:31,42-22.11N,141-57.88E,122,2.306,32.1527,8.24
633,2019/4/15,10:32,42-21.94N,141-58.26E,121,2.369,32.1468,8.25
634,2019/4/15,10:33,42-21.77N,141-58.63E,121,2.44,32.1494,8.24
635,2019/4/15,10:34,42-21.59N,141-59.01E,122,2.48,32.1467,8.24
636,2019/4/15,10:35,42-21.42N,141-59.38E,122,2.492,32.1456,8.25
637,2019/4/15,10:36,42-21.24N,141-59.77E,122,2.524,32.1425,8.25
638,2019/4/15,10:37,42-21.06N,142-00.15E,122,2.55,32.1353,8.25
639,2019/4/15,10:38,42-20.87N,142-00.55E,121,2.579,32.1253,8.24
640,2019/4/15,10:39,42-20.70N,142-00.93E,121,2.64,32.1208,8.24
641,2019/4/15,10:40,42-20.52N,142-01.32E,121,2.695,32.1179,8.25
642,2019/4/15,10:41,42-20.35N,142-01.69E,122,2.728,32.1184,8.24
643,2019/4/15,10:42,42-20.18N,142-02.07E,121,2.763,32.1147,8.26
644,2019/4/15,10:43,42-19.99N,142-02.48E,121,2.815,32.1191,8.26
645,2019/4/15,10:44,42-19.82N,142-02.86E,121,2.834,32.1207,8.26
646,2019/4/15,10:45,42-19.67N,142-03.22E,119,2.823,32.1185,8.25
647,2019/4/15,10:46,42-19.51N,142-03.57E,122,2.797,32.1214,8.25
648,2019/4/15,10:47,42-19.33N,142-03.93E,122,2.796,32.1265,8.26
649,2019/4/15,10:48,42-19.16N,142-04.30E,121,2.727,32.1301,8.26
650,2019/4/15,10:49,42-18.99N,142-04.67E,121,2.704,32.1352,8.26
651,2019/4/15,10:50,42-18.82N,142-05.05E,121,2.689,32.1337,8.26
652,2019/4/15,10:51,42-18.65N,142-05.42E,121,2.662,32.1347,8.27
653,2019/4/15,10:52,42-18.49N,142-05.78E,121,2.599,32.1341,8.27
654,2019/4/15,10:53,42-18.33N,142-06.14E,121,2.637,32.1319,8.26
655,2019/4/15,10:54,42-18.16N,142-06.51E,121,2.649,32.134,8.27
656,2019/4/15,10:55,42-17.99N,142-06.87E,122,2.655,32.1332,8.27
657,2019/4/15,10:56,42-17.82N,142-07.24E,121,2.713,32.1336,8.27
658,2019/4/15,10:57,42-17.64N,142-07.64E,122,2.745,32.1386,8.27
659,2019/4/15,10:58,42-17.47N,142-08.01E,121,2.775,32.1382,8.27
660,2019/4/15,10:59,42-17.31N,142-08.37E,121,2.758,32.1402,8.27
661,2019/4/15,11:00,42-17.14N,142-08.74E,121,2.689,32.1407,8.27
662,2019/4/15,11:01,42-16.96N,142-09.13E,122,2.667,32.1417,8.27
663,2019/4/15,11:02,42-16.79N,142-09.51E,121,2.671,32.1422,8.27
664,2019/4/15,11:03,42-16.62N,142-09.89E,121,2.661,32.1369,8.27
665,2019/4/15,11:04,42-16.44N,142-10.27E,121,2.648,32.1285,8.27
666,2019/4/15,11:05,42-16.26N,142-10.65E,121,2.656,32.1225,8.27
667,2019/4/15,11:06,42-16.08N,142-11.04E,121,2.577,32.1199,8.27
668,2019/4/15,11:07,42-15.90N,142-11.43E,121,2.588,32.1173,8.27
669,2019/4/15,11:08,42-15.73N,142-11.81E,121,2.6,32.1202,8.27
670,2019/4/15,11:09,42-15.55N,142-12.20E,121,2.548,32.121,8.27
671,2019/4/15,11:10,42-15.37N,142-12.59E,121,2.419,32.1177,8.27
672,2019/4/15,11:11,42-15.20N,142-12.96E,121,2.388,32.1142,8.27
673,2019/4/15,11:12,42-15.03N,142-13.33E,121,2.388,32.1237,8.27
674,2019/4/15,11:13,42-14.85N,142-13.73E,121,2.397,32.1345,8.27
675,2019/4/15,11:14,42-14.68N,142-14.10E,120,2.406,32.1348,8.28
676,2019/4/15,11:15,42-14.51N,142-14.48E,121,2.364,32.1277,8.28
677,2019/4/15,11:16,42-14.33N,142-14.86E,122,2.395,32.1175,8.28
678,2019/4/15,11:17,42-14.15N,142-15.25E,122,2.488,32.1184,8.28
679,2019/4/15,11:18,42-13.97N,142-15.63E,122,2.578,32.1196,8.28
680,2019/4/15,11:19,42-13.78N,142-16.04E,121,2.63,32.1326,8.28
681,2019/4/15,11:20,42-13.60N,142-16.43E,122,2.508,32.1461,8.28
682,2019/4/15,11:21,42-13.42N,142-16.83E,122,2.614,32.1621,8.28
683,2019/4/15,11:22,42-13.24N,142-17.22E,121,2.659,32.1894,8.28
684,2019/4/15,11:23,42-13.05N,142-17.61E,122,2.719,32.1992,8.29
685,2019/4/15,11:24,42-12.88N,142-17.99E,121,2.718,32.2075,8.29
686,2019/4/15,11:25,42-12.70N,142-18.37E,121,2.751,32.2096,8.3
687,2019/4/15,11:26,42-12.53N,142-18.75E,121,2.794,32.2122,8.29
688,2019/4/15,11:27,42-12.36N,142-19.13E,121,2.809,32.2171,8.3
689,2019/4/15,11:28,42-12.18N,142-19.51E,121,2.807,32.2187,8.3
690,2019/4/15,11:29,42-12.00N,142-19.91E,122,2.809,32.218,8.29
691,2019/4/15,11:30,42-11.82N,142-20.29E,121,2.783,32.218,8.29
692,2019/4/15,11:31,42-11.65N,142-20.68E,120,2.712,32.2191,8.3
693,2019/4/15,11:32,42-11.47N,142-21.08E,121,2.703,32.2165,8.29
694,2019/4/15,11:33,42-11.31N,142-21.44E,121,2.729,32.2188,8.3
695,2019/4/15,11:34,42-11.13N,142-21.82E,122,2.714,32.2134,8.3
696,2019/4/15,11:35,42-10.96N,142-22.19E,122,2.678,32.2137,8.31
697,2019/4/15,11:36,42-10.78N,142-22.58E,122,2.658,32.209,8.32
698,2019/4/15,11:37,42-10.60N,142-22.97E,121,2.714,32.2138,8.32
699,2019/4/15,11:38,42-10.41N,142-23.37E,122,2.642,32.2282,8.32
700,2019/4/15,11:39,42-10.24N,142-23.75E,121,2.622,32.2378,8.33
701,2019/4/15,11:40,42-10.06N,142-24.13E,122,2.658,32.2438,8.33
702,2019/4/15,11:41,42-09.87N,142-24.53E,122,2.586,32.2473,8.33
703,2019/4/15,11:42,42-09.69N,142-24.92E,121,2.623,32.2383,8.33
704,2019/4/15,11:43,42-09.49N,142-25.37E,120,2.581,32.2297,8.33
705,2019/4/15,11:44,42-09.31N,142-25.77E,121,2.967,32.2195,8.34
706,2019/4/15,11:45,42-09.16N,142-26.09E,121,3.758,32.2575,8.34
707,2019/4/15,11:46,42-08.98N,142-26.48E,121,3.87,32.3788,8.33
708,2019/4/15,11:47,42-08.80N,142-26.87E,122,3.703,32.4447,8.33
709,2019/4/15,11:48,42-08.62N,142-27.26E,122,3.165,32.4532,8.33
710,2019/4/15,11:49,42-08.43N,142-27.65E,121,2.575,32.4352,8.32
711,2019/4/15,11:50,42-08.25N,142-28.05E,121,2.42,32.3618,8.33
712,2019/4/15,11:51,42-08.08N,142-28.43E,121,2.464,32.3353,8.32
713,2019/4/15,11:52,42-07.91N,142-28.82E,121,2.069,32.3499,8.33
714,2019/4/15,11:53,42-07.72N,142-29.21E,122,1.895,32.3211,8.33
715,2019/4/15,11:54,42-07.55N,142-29.59E,121,1.83,32.2997,8.33
716,2019/4/15,11:55,42-07.36N,142-29.98E,122,1.8,32.2872,8.33
717,2019/4/15,11:56,42-07.19N,142-30.36E,121,1.766,32.2871,8.33
718,2019/4/15,11:57,42-07.01N,142-30.75E,121,1.682,32.2832,8.33
719,2019/4/15,11:58,42-06.84N,142-31.13E,121,1.617,32.2781,8.33
720,2019/4/15,11:59,42-06.66N,142-31.52E,121,1.604,32.2633,8.33
721,2019/4/15,12:00,42-06.49N,142-31.90E,121,1.527,32.2664,8.33
722,2019/4/15,12:01,42-06.31N,142-32.28E,121,1.597,32.269,8.33
723,2019/4/15,12:02,42-06.13N,142-32.67E,121,1.647,32.2751,8.33
724,2019/4/15,12:03,42-05.96N,142-33.04E,121,1.728,32.268,8.32
725,2019/4/15,12:04,42-05.78N,142-33.44E,121,1.836,32.2594,8.31
726,2019/4/15,12:05,42-05.60N,142-33.82E,121,1.882,32.2561,8.3
727,2019/4/15,12:06,42-05.42N,142-34.21E,121,2.049,32.2521,8.3
728,2019/4/15,12:07,42-05.24N,142-34.61E,121,2.109,32.259,8.3
729,2019/4/15,12:08,42-05.07N,142-34.99E,120,2.142,32.2643,8.29
730,2019/4/15,12:09,42-04.90N,142-35.36E,121,2.193,32.2617,8.29
731,2019/4/15,12:10,42-04.73N,142-35.74E,121,2.286,32.2577,8.29
732,2019/4/15,12:11,42-04.56N,142-36.11E,121,2.38,32.2545,8.29
733,2019/4/15,12:12,42-04.39N,142-36.49E,121,2.575,32.2503,8.29
734,2019/4/15,12:13,42-04.20N,142-36.88E,122,2.63,32.2527,8.29
735,2019/4/15,12:14,42-04.02N,142-37.27E,122,2.671,32.2463,8.29
736,2019/4/15,12:15,42-03.84N,142-37.66E,121,2.816,32.2323,8.29
737,2019/4/15,12:16,42-03.66N,142-38.04E,121,2.924,32.2231,8.3
738,2019/4/15,12:17,42-03.48N,142-38.44E,122,3.065,32.2067,8.3
739,2019/4/15,12:18,42-03.30N,142-38.84E,121,2.881,32.2124,8.3
740,2019/4/15,12:19,42-03.12N,142-39.23E,121,3.461,32.2249,8.3
741,2019/4/15,12:20,42-02.94N,142-39.63E,120,3.528,32.3318,8.3
742,2019/4/15,12:21,42-02.77N,142-40.03E,120,3.476,32.4023,8.3
743,2019/4/15,12:22,42-02.59N,142-40.43E,120,3.068,32.4427,8.31
744,2019/4/15,12:23,42-02.42N,142-40.82E,120,3.148,32.4317,8.3
745,2019/4/15,12:24,42-02.24N,142-41.22E,120,3.218,32.4439,8.3
746,2019/4/15,12:25,42-02.07N,142-41.60E,119,3.381,32.4807,8.3
747,2019/4/15,12:26,42-01.91N,142-41.98E,120,3.775,32.4938,8.3
748,2019/4/15,12:27,42-01.74N,142-42.37E,121,3.709,32.5068,8.3
749,2019/4/15,12:28,42-01.56N,142-42.77E,120,3.671,32.4899,8.3
750,2019/4/15,12:29,42-01.39N,142-43.17E,119,3.664,32.4799,8.29
751,2019/4/15,12:30,42-01.23N,142-43.56E,120,3.595,32.4783,8.29
752,2019/4/15,12:31,42-01.06N,142-43.96E,119,3.357,32.4786,8.3
753,2019/4/15,12:32,42-00.85N,142-44.41E,120,2.865,32.4813,8.3
754,2019/4/15,12:33,42-00.68N,142-44.81E,120,2.249,32.4701,8.29
755,2019/4/15,12:34,42-00.51N,142-45.20E,120,1.927,32.4397,8.29
756,2019/4/15,12:35,42-00.34N,142-45.59E,120,2.014,32.4044,8.3
757,2019/4/15,12:36,42-00.17N,142-45.99E,120,1.928,32.3591,8.31
758,2019/4/15,12:37,41-59.98N,142-46.39E,121,1.941,32.3368,8.3
759,2019/4/15,12:38,41-59.82N,142-46.76E,120,1.677,32.3304,8.3
760,2019/4/15,12:39,41-59.67N,142-47.11E,119,1.603,32.309,8.3
761,2019/4/15,12:40,41-59.50N,142-47.49E,120,1.618,32.3018,8.3
762,2019/4/15,12:41,41-59.34N,142-47.87E,119,1.66,32.2794,8.3
763,2019/4/15,12:42,41-59.17N,142-48.25E,121,1.693,32.2638,8.29
764,2019/4/15,12:43,41-59.01N,142-48.63E,120,1.78,32.2545,8.28
765,2019/4/15,12:44,41-58.84N,142-49.01E,121,1.784,32.2451,8.28
766,2019/4/15,12:45,41-58.66N,142-49.39E,120,1.802,32.2366,8.28
767,2019/4/15,12:46,41-58.50N,142-49.78E,119,1.836,32.2312,8.27
768,2019/4/15,12:47,41-58.32N,142-50.18E,120,1.947,32.2241,8.28
769,2019/4/15,12:48,41-58.15N,142-50.56E,120,2.029,32.2142,8.27
770,2019/4/15,12:49,41-57.98N,142-50.94E,120,1.997,32.2025,8.27
771,2019/4/15,12:50,41-57.81N,142-51.32E,119,1.774,32.1978,8.27
772,2019/4/15,12:51,41-57.65N,142-51.71E,120,2.148,32.1822,8.27
773,2019/4/15,12:52,41-57.48N,142-52.08E,120,2.132,32.2043,8.26
774,2019/4/15,12:53,41-57.31N,142-52.46E,120,2.115,32.1961,8.27
775,2019/4/15,12:54,41-57.14N,142-52.85E,120,2.069,32.1808,8.27
776,2019/4/15,12:55,41-56.96N,142-53.25E,120,2.118,32.16,8.27
777,2019/4/15,12:56,41-56.79N,142-53.64E,120,2.117,32.1407,8.27
778,2019/4/15,12:57,41-56.61N,142-54.04E,119,2.187,32.1212,8.27
779,2019/4/15,12:58,41-56.40N,142-54.52E,120,2.388,32.1142,8.27
780,2019/4/15,12:59,41-56.26N,142-54.84E,120,2.359,32.1297,8.27
781,2019/4/15,13:00,41-56.09N,142-55.23E,119,2.468,32.1155,8.27
782,2019/4/15,13:01,41-55.92N,142-55.63E,121,2.575,32.1071,8.28
783,2019/4/15,13:02,41-55.73N,142-56.04E,120,2.541,32.1018,8.27
784,2019/4/15,13:03,41-55.57N,142-56.42E,120,2.557,32.0908,8.28
785,2019/4/15,13:04,41-55.39N,142-56.83E,120,2.526,32.0832,8.28
786,2019/4/15,13:05,41-55.22N,142-57.22E,119,2.51,32.0749,8.29
787,2019/4/15,13:06,41-55.04N,142-57.62E,120,2.451,32.0687,8.29
788,2019/4/15,13:07,41-54.85N,142-58.06E,119,2.408,32.0622,8.29
789,2019/4/15,13:08,41-54.67N,142-58.46E,121,2.448,32.0581,8.29
790,2019/4/15,13:09,41-54.50N,142-58.84E,120,2.475,32.0558,8.3
791,2019/4/15,13:10,41-54.33N,142-59.22E,120,2.517,32.0388,8.3
792,2019/4/15,13:11,41-54.16N,142-59.62E,120,2.545,32.0317,8.29
793,2019/4/15,13:12,41-53.98N,143-00.01E,121,2.564,32.0238,8.29
794,2019/4/15,13:13,41-53.81N,143-00.39E,120,2.575,32.0169,8.29
795,2019/4/15,13:14,41-53.64N,143-00.76E,121,2.603,32.0128,8.29
796,2019/4/15,13:15,41-53.47N,143-01.13E,121,2.605,32.0066,8.3
797,2019/4/15,13:16,41-53.29N,143-01.53E,121,2.593,32.0018,8.28
798,2019/4/15,13:17,41-53.11N,143-01.93E,121,2.628,31.9967,8.29
799,2019/4/15,13:18,41-52.94N,143-02.30E,121,2.66,31.9972,8.28
800,2019/4/15,13:19,41-52.76N,143-02.68E,121,2.702,31.9982,8.29
801,2019/4/15,13:20,41-52.58N,143-03.09E,121,2.738,31.9972,8.28
802,2019/4/15,13:21,41-52.41N,143-03.47E,121,2.732,31.9987,8.28
803,2019/4/15,13:22,41-52.22N,143-03.86E,121,2.75,31.9995,8.28
804,2019/4/15,13:23,41-52.04N,143-04.26E,121,2.741,32.0002,8.27
805,2019/4/15,13:24,41-51.84N,143-04.68E,122,2.72,31.9982,8.27
806,2019/4/15,13:25,41-51.67N,143-05.06E,121,2.711,31.998,8.27
807,2019/4/15,13:26,41-51.50N,143-05.43E,121,2.702,32.0014,8.27
808,2019/4/15,13:27,41-51.33N,143-05.80E,121,2.692,32.0019,8.27
809,2019/4/15,13:28,41-51.14N,143-06.21E,121,2.703,32.0043,8.27
810,2019/4/15,13:29,41-50.96N,143-06.60E,122,2.705,32.0051,8.27
811,2019/4/15,13:30,41-50.78N,143-06.99E,122,2.722,32.008,8.27
812,2019/4/15,13:31,41-50.59N,143-07.39E,121,2.717,32.011,8.27
813,2019/4/15,13:32,41-50.40N,143-07.81E,121,2.739,32.0144,8.27
814,2019/4/15,13:33,41-50.23N,143-08.19E,121,2.739,32.0168,8.27
815,2019/4/15,13:34,41-50.04N,143-08.59E,121,2.738,32.0206,8.27
816,2019/4/15,13:35,41-49.87N,143-08.97E,121,2.763,32.0215,8.27
817,2019/4/15,13:36,41-49.69N,143-09.36E,121,2.773,32.0203,8.27
818,2019/4/15,13:37,41-49.51N,143-09.75E,121,2.786,32.0183,8.27
819,2019/4/15,13:38,41-49.33N,143-10.14E,121,2.792,32.0169,8.27
820,2019/4/15,13:39,41-49.14N,143-10.55E,120,2.814,32.0103,8.26
821,2019/4/15,13:40,41-49.06N,143-10.96E,96,2.84,32.0053,8.26
822,2019/4/15,13:41,41-49.11N,143-11.41E,75,2.814,32.0049,8.27
823,2019/4/15,13:42,41-49.21N,143-11.83E,72,2.718,31.9968,8.27
824,2019/4/15,13:43,41-49.32N,143-12.27E,72,2.748,31.9993,8.27
825,2019/4/15,13:44,41-49.43N,143-12.71E,71,2.774,32.0043,8.26
826,2019/4/15,13:45,41-49.55N,143-13.16E,71,2.733,32.0038,8.27
827,2019/4/15,13:46,41-49.66N,143-13.61E,73,2.74,32.005,8.27
828,2019/4/15,13:47,41-49.77N,143-14.07E,71,2.767,32.0099,8.26
829,2019/4/15,13:48,41-49.87N,143-14.54E,72,2.787,32.0105,8.26
830,2019/4/15,13:49,41-49.98N,143-14.97E,70,2.771,32.0118,8.26
831,2019/4/15,13:50,41-50.11N,143-15.41E,69,2.716,32.0138,8.26
832,2019/4/15,13:51,41-50.24N,143-15.86E,71,2.72,32.0171,8.26
833,2019/4/15,13:52,41-50.36N,143-16.28E,64,2.646,32.0209,8.26
834,2019/4/15,13:53,41-50.59N,143-16.63E,46,2.547,32.0201,8.26
835,2019/4/15,13:54,41-50.83N,143-16.96E,43,2.453,32.0314,8.26
836,2019/4/15,13:55,41-51.09N,143-17.29E,42,2.38,32.04,8.25
837,2019/4/15,13:56,41-51.35N,143-17.61E,44,2.401,32.0532,8.26
838,2019/4/15,13:57,41-51.62N,143-17.93E,43,2.274,32.0533,8.26
839,2019/4/15,13:58,41-51.86N,143-18.26E,45,2.149,32.0494,8.26
840,2019/4/15,13:59,41-52.12N,143-18.60E,46,1.954,32.0528,8.26
841,2019/4/15,14:00,41-52.36N,143-18.96E,49,1.819,32.0684,8.26
842,2019/4/15,14:01,41-52.61N,143-19.32E,48,1.579,32.0809,8.25
843,2019/4/15,14:02,41-52.85N,143-19.66E,44,1.431,32.0917,8.26
844,2019/4/15,14:03,41-53.12N,143-20.00E,43,1.436,32.1166,8.26
845,2019/4/15,14:04,41-53.38N,143-20.35E,44,1.384,32.1188,8.25
846,2019/4/15,14:05,41-53.64N,143-20.70E,44,1.615,32.1217,8.24
847,2019/4/15,14:06,41-53.89N,143-21.04E,46,1.811,32.1194,8.24
848,2019/4/15,14:07,41-54.14N,143-21.41E,47,1.979,32.0898,8.24
849,2019/4/15,14:08,41-54.39N,143-21.77E,46,2.083,32.058,8.23
850,2019/4/15,14:09,41-54.66N,143-22.10E,42,2.138,32.0357,8.21
851,2019/4/15,14:10,41-54.91N,143-22.45E,49,2.17,32.0257,8.21
852,2019/4/15,14:11,41-55.14N,143-22.80E,47,2.203,32.0154,8.21
853,2019/4/15,14:12,41-55.40N,143-23.14E,45,2.242,32.0105,8.21
854,2019/4/15,14:13,41-55.66N,143-23.47E,45,2.261,32.0094,8.21
855,2019/4/15,14:14,41-55.91N,143-23.83E,48,2.39,32.0193,8.21
856,2019/4/15,14:15,41-56.16N,143-24.19E,45,2.634,32.0204,8.21
857,2019/4/15,14:16,41-56.40N,143-24.52E,45,2.84,32.0132,8.22
858,2019/4/15,14:17,41-56.66N,143-24.86E,41,2.949,31.9894,8.21
859,2019/4/15,14:18,41-56.95N,143-25.16E,33,2.916,31.9652,8.22
860,2019/4/15,14:19,41-57.24N,143-25.38E,30,2.881,31.9556,8.21
861,2019/4/15,14:20,41-57.55N,143-25.60E,26,2.828,31.9555,8.22
862,2019/4/15,14:21,41-57.86N,143-25.81E,26,2.757,31.9591,8.22
863,2019/4/15,14:22,41-58.17N,143-26.06E,32,2.717,31.9626,8.22
864,2019/4/15,14:23,41-58.47N,143-26.32E,32,2.652,31.965,8.22
865,2019/4/15,14:24,41-58.77N,143-26.57E,30,2.603,31.9662,8.23
866,2019/4/15,14:25,41-59.08N,143-26.83E,34,2.522,31.9773,8.23
867,2019/4/15,14:26,41-59.36N,143-27.14E,40,2.521,31.9903,8.23
868,2019/4/15,14:27,41-59.63N,143-27.44E,37,2.576,31.997,8.23
869,2019/4/15,14:28,41-59.92N,143-27.72E,36,2.564,31.9921,8.24
870,2019/4/15,14:29,42-00.20N,143-28.03E,42,2.544,31.988,8.24
871,2019/4/15,14:30,42-00.47N,143-28.35E,41,2.468,31.9882,8.24
872,2019/4/15,14:31,42-00.75N,143-28.67E,40,2.374,31.9899,8.24
873,2019/4/15,14:32,42-01.03N,143-28.99E,39,2.306,31.9997,8.23
874,2019/4/15,14:33,42-01.30N,143-29.29E,39,2.241,32.0093,8.24
875,2019/4/15,14:34,42-01.58N,143-29.59E,37,2.11,32.0183,8.23
876,2019/4/15,14:35,42-01.86N,143-29.90E,41,2.055,32.0277,8.24
877,2019/4/15,14:36,42-02.13N,143-30.22E,39,2.013,32.0415,8.24
878,2019/4/15,14:37,42-02.40N,143-30.53E,38,1.932,32.0457,8.24
879,2019/4/15,14:38,42-02.68N,143-30.83E,37,1.883,32.0442,8.24
880,2019/4/15,14:39,42-02.95N,143-31.15E,42,1.91,32.0471,8.24
881,2019/4/15,14:40,42-03.23N,143-31.44E,39,1.931,32.0336,8.24
882,2019/4/15,14:41,42-03.50N,143-31.75E,41,1.989,32.0193,8.24
883,2019/4/15,14:42,42-03.77N,143-32.07E,37,2.042,31.9971,8.24
884,2019/4/15,14:43,42-04.05N,143-32.37E,36,2.102,31.9802,8.24
885,2019/4/15,14:44,42-04.34N,143-32.65E,36,2.121,31.9717,8.24
886,2019/4/15,14:45,42-04.62N,143-32.94E,38,2.08,31.9699,8.23
887,2019/4/15,14:46,42-04.91N,143-33.22E,34,2.017,31.9609,8.23
888,2019/4/15,14:47,42-05.19N,143-33.48E,34,2.101,31.9792,8.22
889,2019/4/15,14:48,42-05.48N,143-33.75E,34,2.178,31.9788,8.23
890,2019/4/15,14:49,42-05.77N,143-33.98E,30,2.25,31.9775,8.22
891,2019/4/15,14:50,42-06.07N,143-34.19E,26,2.312,31.9888,8.22
892,2019/4/15,14:51,42-06.37N,143-34.44E,32,2.341,31.9951,8.22
893,2019/4/15,14:52,42-06.68N,143-34.68E,30,2.36,31.9933,8.23
894,2019/4/15,14:53,42-06.98N,143-34.92E,29,2.386,31.9878,8.23
895,2019/4/15,14:54,42-07.30N,143-35.13E,25,2.43,31.9776,8.23
896,2019/4/15,14:55,42-07.61N,143-35.38E,32,2.492,31.9678,8.24
897,2019/4/15,14:56,42-07.93N,143-35.62E,26,2.514,31.9515,8.24
898,2019/4/15,14:57,42-08.24N,143-35.87E,31,2.503,31.9328,8.24
899,2019/4/15,14:58,42-08.55N,143-36.10E,28,2.465,31.9258,8.24
900,2019/4/15,14:59,42-08.87N,143-36.33E,28,2.402,31.929,8.24
901,2019/4/15,15:00,42-09.18N,143-36.59E,29,2.331,31.9367,8.24
902,2019/4/15,15:01,42-09.49N,143-36.83E,30,2.298,31.9492,8.24
903,2019/4/15,15:02,42-09.80N,143-37.06E,29,2.265,31.9628,8.25
904,2019/4/15,15:03,42-10.10N,143-37.31E,31,2.244,31.975,8.26
905,2019/4/15,15:04,42-10.42N,143-37.55E,28,2.204,31.9848,8.24
906,2019/4/15,15:05,42-10.75N,143-37.78E,28,2.155,31.9972,8.25
907,2019/4/15,15:06,42-11.04N,143-38.02E,30,2.073,32.0145,8.26
908,2019/4/15,15:07,42-11.35N,143-38.25E,30,2.023,32.0343,8.25
909,2019/4/15,15:08,42-11.65N,143-38.49E,29,2.034,32.0656,8.25
910,2019/4/15,15:09,42-11.96N,143-38.73E,28,2.032,32.0828,8.25
911,2019/4/15,15:10,42-12.26N,143-38.94E,26,1.951,32.0811,8.24
912,2019/4/15,15:11,42-12.59N,143-39.15E,24,1.79,32.1026,8.26
913,2019/4/15,15:12,42-12.89N,143-39.37E,31,1.716,32.1519,8.24
914,2019/4/15,15:13,42-13.21N,143-39.60E,27,1.731,32.2038,8.24
915,2019/4/15,15:14,42-13.51N,143-39.83E,30,1.686,32.2143,8.24
916,2019/4/15,15:15,42-13.83N,143-40.06E,24,1.481,32.2097,8.25
917,2019/4/15,15:16,42-14.14N,143-40.26E,25,1.249,32.2384,8.24
918,2019/4/15,15:17,42-14.45N,143-40.45E,24,1.216,32.2717,8.24
919,2019/4/15,15:18,42-14.76N,143-40.66E,27,1.2,32.2933,8.24
920,2019/4/15,15:19,42-15.07N,143-40.88E,30,1.145,32.2946,8.22
921,2019/4/15,15:20,42-15.37N,143-41.08E,28,1.031,32.2933,8.22
922,2019/4/15,15:21,42-15.67N,143-41.30E,27,1.061,32.2977,8.23
923,2019/4/15,15:22,42-15.99N,143-41.51E,26,1.137,32.3042,8.23
924,2019/4/15,15:23,42-16.29N,143-41.72E,28,1.286,32.3021,8.22
925,2019/4/15,15:24,42-16.61N,143-41.93E,24,1.368,32.2909,8.2
926,2019/4/15,15:25,42-16.92N,143-42.16E,30,1.313,32.2722,8.2
927,2019/4/15,15:26,42-17.23N,143-42.39E,26,1.309,32.2595,8.19
928,2019/4/15,15:27,42-17.54N,143-42.63E,32,1.324,32.2565,8.21
929,2019/4/15,15:28,42-17.85N,143-42.85E,26,1.357,32.2397,8.21
930,2019/4/15,15:29,42-18.16N,143-43.07E,27,1.329,32.2105,8.21
931,2019/4/15,15:30,42-18.47N,143-43.29E,28,1.296,32.1865,8.21
932,2019/4/15,15:31,42-18.78N,143-43.52E,30,1.278,32.179,8.22
933,2019/4/15,15:32,42-19.09N,143-43.79E,30,1.259,32.1796,8.22
934,2019/4/15,15:33,42-19.40N,143-44.01E,27,1.318,32.1806,8.22
935,2019/4/15,15:34,42-19.70N,143-44.25E,32,1.592,32.1804,8.21
936,2019/4/15,15:35,42-20.00N,143-44.50E,30,1.669,32.1694,8.22